sat.trackr.live / text

‹ back to catalog

NIGCOMSAT 1R

NORAD 38014 · 2011-077A

PAYLOAD ACTIVE UNKNOWN

§ Identity

Operator
Country
NIG
Launch date
2011-12-19
Launch site
XICLF
Launch vehicle
Mass (kg)
RCS (m²)
18.49

Purposes: comms

External: N2YO · Heavens-Above · Gunter

§ Orbital elements

Epoch: 2026-09-19T03:29:15.335232Z

Period
1,436.13 min
Inclination
0.0461°
Eccentricity
0.0002672
Mean motion
1.00269633 rev/d
Perigee alt
35,775.9 km
Apogee alt
35,798.5 km
Semi-major
42,165.3 km
B*
0.0000e+0
RAAN
241.5829°
Arg perigee
100.9032°
Mean anomaly
110.4285°
Rev number
5,389

§ Raw data

NIGCOMSAT 1R1 38014U 11077A   26262.14531638  .00000141  00000+0  00000+0 0  99952 38014   0.0461 241.5829 0002672 100.9032 110.4285  1.00269633 53898

JSON: /api/v1/satellites/38014 · /tle

For live sub-satellite position, see the globe view (requires WebGL).

§ Visibility from observer

Set your observer location to see the next 7 days of passes ≥ 10°. The values pass through the URL so the page stays shareable.

No JS? Fill the form by hand. The geolocation button needs JavaScript.